www.pogodaiklimat.ru

Погода и климат >> Архив погоды >> Саудовская Аравия >> Arar


ПОГОДА в Arar

  • Прогноз погоды в Arar
  • Монитор погоды в Arar
  • Климат города

АРХИВ ПОГОДЫ в Arar

Время (UTC), дата Ветер
(напр.,м/с)
 
Видим.   Явления Облачность Т
(С)
Тd
(С)
f
(%)
Тe
(С)
Тes
(С)
Комфортность P
(гПа)
Po
(гПа)
Тmin
(С)
Tmax
(С)
R
(мм)
R24
(мм)
S
(см)
09 11.08 СВ 4 10 км 5/0
[Ac lent]
+45.4 +18.0 21 +48 +56 опасность
перегрева
999.0 941.6
12 11.08 С 2 10 км 6/0
[Ac trans]
+47.0 +17.0 18 +49 +57 опасность
перегрева
998.2 940.7
15 11.08 С 2 10 км 3/0
[Ac trans]
+45.0 +16.0 19 +47 +47 опасность
перегрева
998.0 940.2
18 11.08 СЗ 3 10 км ясно +38.6 +14.0 23 +39 +39 душно 999.3 941.5 +47.0
21 11.08 СЗ 3 10 км ясно +34.8 +14.0 29 +36 +36 душно 998.9 941.4
00 12.08 З 3 10 км ясно +32.0 +13.0 31 +33 +33 жарко 998.6 941.0
03 12.08 СЗ 3 10 км 4/0
[Ac trans]
+29.5 +10.0 30 +30 +30 жарко 999.4 941.3
06 12.08 СВ 5 10 км 4/0
[Ac trans]
+37.1 +17.0 31 +40 +44 очень
душно
1000.3 942.3 +29.5
09 12.08 В 5 10 км ясно +44.6 +18.0 22 +48 +59 опасность
перегрева
999.4 941.8
12 12.08 ЮЗ 6 10 км ясно +47.0 +17.0 18 +49 +54 опасность
перегрева
997.8 940.2
15 12.08 СЗ 3 10 км ясно +45.6 +15.0 17 +46 +47 опасность
перегрева
997.4 939.5
18 12.08 ЮЗ 2 10 км 3/0
[Ac trans]
+40.0 +13.0 20 +40 +40 очень
душно
998.3 940.3 +47.3
21 12.08 СЗ 3 10 км ясно +35.4 +11.0 23 +35 +35 очень
жарко
998.2 940.7
00 13.08 СЗ 4 10 км ясно +31.6 +11.0 28 +32 +32 жарко 997.5 939.9
03 13.08 З 2 10 км ясно +29.6 +11.0 32 +30 +30 жарко 998.9 940.9
06 13.08 СЗ 5 10 км ясно +36.1 +19.0 37 +41 +46 опасность
перегрева
999.6 941.7 +29.6
09 13.08 С 3 10 км ясно +44.1 +18.0 22 +47 +65 опасность
перегрева
999.2 941.6
12 13.08 штиль 0 10 км ясно +46.4 +18.0 20 +49 +66 опасность
перегрева
998.5 940.8
15 13.08 З 2 10 км ясно +44.8 +18.0 22 +48 +49 опасность
перегрева
998.4 940.4
18 13.08 С 3 10 км ясно +38.2 +16.0 27 +40 +40 очень
душно
999.8 941.7 +46.6
21 13.08 З 3 10 км ясно +35.4 +16.0 32 +38 +38 очень
душно
1000.2 942.5
00 14.08 СЗ 3 10 км ясно +33.0 +13.0 30 +34 +34 очень
жарко
1000.3 942.6
03 14.08 СЗ 4 10 км ясно +29.8 +14.0 38 +32 +32 душно 1001.9 943.7
06 14.08 С 6 10 км ясно +35.1 +18.0 36 +39 +43 очень
душно
1003.2 944.8 +29.8
09 14.08 В 4 10 км ясно +41.4 +20.0 29 +46 +61 опасность
перегрева
1002.9 944.8
12 14.08 В 2 10 км ясно +44.6 +21.0 26 +50 +63 опасность
перегрева
1001.4 943.5
15 14.08 З 3 10 км ясно +43.0 +19.0 25 +47 +47 опасность
перегрева
1000.8 942.5
18 14.08 З 1 10 км ясно +37.4 +16.0 28 +39 +39 очень
душно
1001.9 943.5 +44.8
21 14.08 СЗ 4 10 км ясно +33.4 +13.0 29 +34 +34 очень
жарко
1001.9 943.7
00 15.08 С 4 10 км ясно +30.1 +10.0 29 +30 +30 жарко 1001.4 943.2
03 15.08 С 4 10 км ясно +28.2 +8.0 28 +28 +28 жарко 1002.1 943.6
06 15.08 С 3 10 км ясно +34.8 +16.0 33 +37 +45 очень
душно
1003.3 944.8 +28.2
09 15.08 СВ 2 10 км ясно +41.8 +18.0 25 +45 +65 опасность
перегрева
1002.1 943.9
12 15.08 Ю 4 10 км ясно +44.1 +18.0 22 +47 +56 опасность
перегрева
1000.4 942.3
15 15.08 Ю 4 10 км ясно +42.8 +17.0 23 +45 +46 опасность
перегрева
999.6 941.2
18 15.08 В 3 10 км ясно +36.6 +15.0 28 +38 +38 очень
душно
1000.2 941.6 +44.1
21 15.08 ЮВ 4 10 км ясно +33.5 +14.0 31 +35 +35 душно 999.2 941.2
00 16.08 ЮВ 3 10 км ясно +32.6 +14.0 32 +34 +34 очень
жарко
997.8 940.0
03 16.08 ЮВ 4 10 км 5/3 900 м
[Sc Ac trans]
+33.9 +14.0 30 +35 +35 очень
жарко
998.7 940.9
06 16.08 ЮВ 8 10 км 5/1 900 м
[Sc Ac trans]
+36.8 +16.0 29 +39 +40 очень
душно
999.8 941.6 +32.6
09 16.08 Ю 7 7000 м пыльный позёмок ясно +44.4 +18.0 22 +47 +53 опасность
перегрева
998.2 940.5
12 16.08 ЮЗ 9 4000 м пыльный позёмок 4/0
[Ac trans]
+47.0 +17.0 18 +49 +50 опасность
перегрева
995.8 938.4
15 16.08 З 8 10 км 5/5 1200 м
[Sc diur, vesp]
+45.6 +16.0 18 +47 +47 опасность
перегрева
995.1 937.7
18 16.08 З 5 10 км 3/0
[Ac trans]
+39.6 +15.0 24 +41 +41 опасность
перегрева
997.1 939.3 +47.0
21 16.08 СЗ 4 10 км 4/3 900 м
[Sc As op]
+35.8 +14.0 27 +37 +37 душно 997.5 940.1
00 17.08 СЗ 3 10 км 5/3 900 м
[Sc As op]
+33.2 +14.0 31 +34 +34 очень
жарко
997.8 940.3
03 17.08 З 3 10 км 5/0
[Ac lent]
+29.2 +13.0 37 +31 +31 жарко 998.9 940.9
06 17.08 С 3 10 км 3/0
[Ac lent]
+36.2 +19.0 37 +41 +48 опасность
перегрева
1000.1 942.1 +29.2
09 17.08 ЮЗ 2 10 км ясно +43.0 +20.0 27 +48 +70 опасность
перегрева
1000.2 942.5
12 17.08 ЮЗ 4 10 км 5/0
[Ac trans]
+45.7 +19.0 22 +50 +55 опасность
перегрева
999.0 941.3
15 17.08 З 4 10 км 5/0
[Ac trans]
+43.9 +17.0 21 +46 +46 опасность
перегрева
999.2 941.1
18 17.08 СЗ 4 10 км ясно +38.2 +15.0 25 +39 +39 очень
душно
1001.2 942.6 +29.2
21 17.08 СЗ 5 10 км ясно +34.0 +10.0 23 +33 +33 жарко 1001.0 943.1
00 18.08 С 5 10 км ясно +31.4 +10.0 27 +31 +31 жарко 1001.1 943.2
03 18.08 С 3 10 км 3/0
[Ac trans]
+28.8 +9.0 29 +29 +29 жарко 1002.3 943.9
06 18.08 СЗ 8 10 км 5/0
[Ac trans]
+33.6 +17.0 37 +37 +38 очень
душно
1004.3 945.7 +28.8

 

Местоположение метеостанции Arar (Саудовская Аравия): широта 30.90 долгота 41.13 высота над уровнем моря 549 м.

В архиве по умолчанию представлена погода в Arar за последнюю неделю. Архивные данные за месяц целиком и за предыдущие месяцы, начиная с января 2011 года, Вы можете получить, выбрав интересующий диапазон дат из раскрывающегося списка и нажав кнопку "Ввод!".

Внимание! Время в таблицах - всемирное. Для получения местного времени необходимо прибавить поправку, которая в Arar равна 3 ч.

Смотрите также архив погоды в соседних городах и на ближайших метеорологических станциях:

Погода в Al-Jouf (Саудовская Аравия) (159 км)
Погода в Al-Nukhib (Ирак) (165 км)
Погода в Turaif (Саудовская Аравия) (244 км)
Погода в Rutbah (Ирак) (250 км)
Погода в Rafha (Саудовская Аравия) (267 км)
Погода в Najaf (Ирак) (326 км)
Погода в H-4 Airport (Иордания) (329 км)
Погода в Karbalaa (Ирак) (334 км)
Погода в Ramadi (Ирак) (351 км)
Погода в Hella (Ирак) (358 км)

Пояснения к столбцам:

Ветер - указаны скорость ветра в м/с - средняя за 10 мин, порывы в срок и между сроками (в фигурных скобках) и направление, откуда дует ветер: С - северный, СВ - северо-восточный, В - восточный, ЮВ - юго-восточный, Ю - южный, ЮЗ - юго-западный, З - западный, СЗ - северо-западный.
Видимость - горизонтальная дальность видимости в метрах или километрах. При видимости от 1 до 10 км при отсутствии осадков обычно наблюдается дымка, при ухудшении видимости до 1 км и менее - туман. В сухую погоду видимость может ухудшаться дымом, пылью или мглою.
Явления - указаны атмосферные явления, наблюдавшиеся в срок или в последний час перед сроком; фигурными скобками обозначены явления, наблюдавшиеся между сроками (за 1-3 часа до срока); квадратными скобками обозначены град или гололедные отложения с указанием их диаметра в мм.
Облачность - указаны через наклонную черту общая и нижняя облачность в баллах и высота нижней границы облаков в метрах; квадратными скобками обозначены формы облаков: Ci - перистые, Cs - перисто-слоистые, Cc - перисто-кучевые, Ac - высококучевые, As - высокослоистые, Sc - слоисто-кучевые, Ns - слоисто-дождевые, Cu - кучевые, Cb - кучево-дождевые. Подробнее классификацию облаков см. в Атласе облаков (PDF).
T - Температура воздуха - температура, измеренная на высоте 2 м над землей.
Td - Температура точки росы - температура, при понижении до которой содержащийся в воздухе водяной пар достигнет насыщения.
f - Относительная влажность воздуха - влажноcть воздуха, измеренная на высоте 2 м над землей.
Te - Эффективная температура - температура, которую ощущает одетый по сезону человек в тени. Характеристика душности погоды. При расчете учитывается влияние влажности воздуха и скорости ветра на теплоощущения человека.
Tes - Эффективная температура на солнце - температура, которую ощущает человек, с поправкой на солнечный нагрев. Характеристика знойности погоды. Зависит от высоты солнца над горизонтом, облачности и скорости ветра. Ночью, в пасмурную погоду, а также при ветре 12 м/с и более поправка равна нулю.
P - Атмосферное давление - приведенное к уровню моря атмосферное давление.
Po - Атмосферное давление - измеренное на уровне метеостанции атмосферное давление.
Tmin - Минимальная температура - минимум температуры воздуха на высоте 2 м над землей.
Tmax - Максимальная температура - максимум температуры воздуха на высоте 2 м над землей.
R - Количество осадков - Количество выпавших осадков за период времени, мм. При наведении курсора мыши на число - период времени, за который выпало указанное количество осадков.
R24 - Количество осадков - Количество выпавших осадков за 24 часа, мм.
S - Снежный покров - Высота снежного покрова, см. При наведении курсора мыши на число - состояние снежного покрова и степень покрытия местности в баллах.